Date,TemperatureHighF,TemperatureAvgF,TemperatureLowF,DewpointHighF,DewpointAvgF,DewpointLowF,HumidityHigh,HumidityAvg,HumidityLow,PressureMaxIn,PressureMinIn,WindSpeedMaxMPH,WindSpeedAvgMPH,GustSpeedMaxMPH,PrecipitationSumIn
2013-1-1,37.7,29.7,19.9,99.9,24.6,5.2,74,52,44,29.93,29.70,30,-70,31,0.01
2013-1-2,29.6,19.7,10.8,99.9,16.8,-3.1,67,54,52,30.09,29.89,22,-76,24,0.00
2013-1-3,25.2,15.6,6.8,99.9,9.3,-5.1,65,45,30,30.13,29.99,20,-79,22,0.00
2013-1-4,38.2,30.1,23.0,99.9,28.2,13.2,77,62,56,29.99,29.80,33,-59,33,0.00
2013-1-5,42.4,32.8,29.0,99.9,27.6,15.9,73,54,36,30.26,29.84,22,-66,24,0.00
2013-1-6,43.6,33.3,29.2,99.9,34.9,20.4,88,63,55,30.22,29.93,22,-90,24,0.00
2013-1-7,38.9,32.5,30.5,99.9,33.2,25.4,84,72,59,30.41,29.95,22,-61,22,0.00
2013-1-8,46.4,37.1,33.3,99.9,36.1,27.8,89,66,54,30.37,30.25,33,-59,37,0.00
2013-1-9,45.4,36.6,31.4,99.9,36.2,25.0,80,69,53,30.40,29.97,26,-61,29,0.00
2013-1-10,47.4,38.5,35.2,99.9,32.2,23.2,65,46,40,30.53,30.02,30,-85,34,0.00
2013-1-11,41.7,35.1,31.5,99.9,35.4,23.8,91,71,65,30.51,30.23,15,-64,17,0.00
2013-1-12,44.7,38.2,39.9,99.9,46.7,37.4,96,83,87,30.24,30.12,15,-102,16,0.01
2013-1-13,48.4,40.5,42.8,99.9,50.4,41.9,97,86,95,30.15,29.98,17,-102,17,0.01
2013-1-14,61.7,45.4,42.4,99.9,48.3,27.5,96,62,43,30.25,29.85,20,-111,22,0.00
2013-1-15,42.5,35.6,35.1,99.9,33.2,23.9,65,54,54,30.31,30.21,13,-90,14,0.00
2013-1-16,35.7,30.1,30.9,99.9,37.3,24.0,95,78,63,30.24,29.81,16,-100,16,0.13
2013-1-17,42.1,33.4,29.7,99.9,33.6,11.0,92,65,45,30.09,29.82,21,-74,23,0.01
2013-1-18,29.7,22.3,17.8,99.9,8.7,-6.3,56,36,27,30.45,30.06,24,-60,25,0.01
2013-1-19,47.6,39.1,26.1,35.5,27.5,11.4,78,63,47,30.39,29.88,39,21,255,0.01
2013-1-20,52.7,39.9,29.6,99.9,31.5,11.2,77,53,32,29.91,29.51,42,-41,46,0.00
2013-1-21,29.6,24.5,23.0,99.9,16.8,4.4,87,53,40,30.10,29.78,24,-51,26,0.00
2013-1-22,25.7,20.1,14.7,99.9,15.4,0.3,88,57,38,30.07,29.74,24,-61,24,0.00
2013-1-23,16.7,11.5,7.5,99.9,-0.9,-13.1,62,39,27,30.13,30.05,27,-50,27,0.00
2013-1-24,19.3,11.2,3.5,99.9,-3.2,-12.5,57,36,25,30.20,30.04,30,-49,33,0.00
2013-1-25,25.4,16.9,9.8,99.9,-0.9,-10.9,63,34,21,30.28,30.06,22,-37,25,0.00
2013-1-26,21.9,14.3,12.7,99.9,19.9,4.5,83,65,47,30.06,30.00,18,-113,19,0.00
2013-2-1,33.1,27.3,23.7,99.9,14.2,4.6,58,40,33,30.07,29.67,33,-47,36,0.00
2013-2-2,30.2,24.4,19.1,99.9,14.2,3.4,59,49,41,30.25,30.04,27,-36,28,0.00
2013-2-3,27.8,24.3,23.0,99.9,23.5,13.9,87,75,57,30.05,29.72,16,-42,20,0.00
2013-2-4,29.9,24.5,22.8,99.9,17.2,6.0,85,54,39,29.93,29.70,31,-47,41,0.00
2013-2-5,29.2,24.4,22.4,99.9,19.2,8.0,91,57,46,30.03,29.93,18,-57,18,0.00
2013-2-6,38.5,29.7,25.8,99.9,25.0,6.8,92,63,39,30.28,29.92,25,-52,27,0.01
2013-2-7,29.4,23.9,18.5,99.9,7.5,-2.0,71,40,26,30.52,30.28,22,-31,22,0.01
2013-2-8,33.9,28.3,22.2,99.9,33.7,20.6,96,81,71,30.49,29.56,50,-70,50,0.02
2013-2-9,22.2,16.9,15.0,99.9,22.5,10.4,94,83,81,30.16,29.49,47,-67,52,0.02
2013-2-10,37.9,25.1,13.8,99.9,14.8,5.6,81,59,29,30.38,30.16,19,-17,21,0.03
2013-2-11,43.2,35.0,27.6,99.9,34.3,13.0,97,81,53,30.35,29.59,20,-30,20,0.13
2013-2-12,44.7,38.4,36.5,99.9,32.7,27.1,96,68,53,29.87,29.58,27,-22,30,0.13
2013-2-13,42.4,35.6,31.6,99.9,30.2,24.0,81,67,52,29.86,29.68,14,-31,15,0.00
2013-2-14,44.4,36.4,32.5,99.9,27.3,19.9,81,63,42,29.99,29.69,16,-15,16,0.00
2013-2-15,46.7,38.7,33.7,99.9,35.3,27.8,92,79,66,30.00,29.90,21,-11,22,0.00
2013-2-16,38.9,34.8,32.7,99.9,31.8,20.6,92,80,61,29.94,29.70,22,-16,22,0.01
2013-2-17,32.6,21.2,17.5,99.9,19.1,2.4,91,60,44,29.70,29.34,38,-67,40,0.01
2013-2-18,31.9,23.3,16.1,99.9,6.3,-1.4,56,39,25,30.14,29.64,34,-24,38,0.00
2013-2-19,44.4,35.3,24.9,99.9,26.9,5.1,96,65,40,30.15,29.56,19,-16,20,0.33
2013-2-20,41.8,32.6,27.8,99.9,24.8,12.0,96,61,43,29.76,29.51,28,-24,30,0.33
2013-2-21,32.7,27.6,25.5,99.9,16.2,10.2,65,55,43,30.16,29.75,26,-11,29,0.00
2013-2-22,39.1,32.5,25.6,27.9,22.7,16.7,75,67,54,30.38,30.16,20,6,21,0.00
2013-2-23,37.9,35.8,34.8,99.9,32.6,26.9,93,79,72,30.34,29.92,17,-16,19,0.14
2013-2-24,38.7,33.1,30.7,99.9,37.4,29.2,95,89,93,29.93,29.67,28,-48,30,0.01
2013-2-25,41.5,34.9,30.1,99.9,30.8,27.9,95,81,61,30.25,29.88,13,-7,15,0.08
2013-2-26,43.7,37.5,31.9,99.9,33.1,29.1,93,80,67,30.34,30.17,15,-8,15,0.00
2013-2-27,40.7,11.1,39.1,99.9,82.3,33.4,93,24,80,30.17,29.53,23,-720,24,0.16
2013-2-28,-200.0,0.0,200.0,99.9,99.9,99.9,0,0,100,29.62,29.54,0,-999,0,0.00
2013-3-3,42.2,38.2,35.2,33.5,31.4,26.7,85,76,69,29.59,29.55,17,6,17,0.00
2013-3-4,39.6,34.7,31.2,29.2,25.1,22.6,87,68,54,29.72,29.56,27,10,30,0.00
2013-3-5,43.2,37.1,31.0,35.2,29.2,22.8,87,73,61,30.06,29.72,22,6,24,0.00
2013-3-6,40.6,38.1,35.6,36.1,33.8,30.5,90,85,70,30.12,30.04,34,14,42,0.04
2013-3-7,37.2,32.3,31.2,99.9,33.5,29.8,95,88,75,30.06,29.96,40,-18,42,0.04
2013-3-8,42.1,33.0,29.8,99.9,32.4,24.9,97,79,53,30.13,29.91,45,-32,45,0.19
2013-3-9,42.6,36.6,30.9,32.8,28.3,23.6,91,72,56,30.35,30.13,25,8,26,0.19
2013-3-10,41.6,35.6,29.5,33.8,30.9,27.0,91,83,71,30.41,30.32,15,5,19,0.00
2013-3-11,46.1,40.6,36.4,40.5,36.8,32.9,93,86,78,30.33,30.16,21,10,22,0.00
2013-3-12,49.3,44.2,41.0,48.4,42.6,39.1,97,94,90,30.17,29.73,22,8,22,0.14
2013-3-13,52.4,45.4,38.6,49.0,32.4,20.1,97,64,32,29.78,29.68,19,6,20,0.15
2013-3-14,38.7,33.1,23.8,25.5,17.0,7.8,65,51,41,29.82,29.69,29,9,29,0.00
2013-3-15,39.7,25.2,20.2,16.8,8.4,5.5,57,49,28,29.86,29.66,23,9,30,0.00
2013-3-19,34.4,32.3,27.7,33.6,31.4,26.2,97,97,94,29.67,29.57,31,13,31,0.33
2013-3-20,38.4,32.4,26.1,26.2,23.2,19.0,94,70,47,29.81,29.66,33,11,34,0.33
2013-3-21,35.5,32.1,29.6,29.8,23.9,17.3,93,72,52,29.82,29.60,11,3,11,0.00
2013-3-22,40.9,34.5,29.8,28.4,21.9,16.6,91,61,40,29.73,29.59,24,6,24,0.01
2013-3-23,44.7,36.5,29.5,24.4,20.4,17.1,73,53,34,29.76,29.61,28,10,32,0.00
2013-3-24,48.3,38.9,32.4,33.9,26.4,21.3,83,62,40,29.80,29.72,21,6,23,0.00
2013-3-25,45.7,39.0,33.3,36.9,32.0,26.5,83,76,68,29.77,29.52,24,8,25,0.00
2013-3-26,50.5,41.3,33.7,33.2,26.6,19.9,92,59,32,29.77,29.52,20,6,23,0.02
2013-3-27,53.9,44.1,35.0,33.6,25.8,22.8,75,50,31,29.86,29.72,23,7,25,0.00
2013-3-28,48.4,42.4,37.7,37.2,34.1,28.8,90,73,49,30.00,29.85,16,5,19,0.00
2013-3-29,54.1,46.1,38.9,39.6,34.3,31.3,76,64,49,30.03,29.96,17,4,17,0.01
2013-3-30,52.6,44.7,38.9,36.9,33.2,25.6,79,65,37,30.09,30.00,15,4,16,0.01
2013-3-31,53.3,44.3,33.4,39.5,31.2,20.1,84,61,42,30.12,29.76,32,7,33,0.01
2013-4-1,55.1,46.1,36.8,80.0,37.4,11.7,96,74,33,29.78,29.49,34,9,39,0.07
2013-4-2,39.2,35.2,31.2,18.7,14.5,10.1,56,43,31,29.94,29.78,37,14,37,0.07
2013-4-3,46.1,37.4,31.5,17.9,14.1,8.1,54,39,21,30.14,29.91,29,13,31,0.00
2013-4-4,52.7,40.6,31.2,34.0,22.4,10.7,68,49,23,30.29,30.05,26,10,26,0.00
2013-4-5,53.7,44.5,39.6,40.7,32.1,22.6,82,63,32,30.05,29.63,29,11,29,0.00
2013-4-6,47.1,38.9,32.0,30.0,12.5,1.1,71,37,15,30.34,29.87,27,7,29,0.00
2013-4-7,48.6,42.5,33.2,40.4,33.6,27.1,83,71,48,30.34,30.01,38,14,41,0.00
2013-4-8,61.2,49.1,44.4,43.3,41.2,38.5,91,76,43,30.11,29.94,20,7,21,0.00
2013-4-9,71.7,50.0,43.6,51.0,43.4,39.7,93,80,40,30.10,29.85,23,4,23,0.01
2013-4-10,52.2,46.7,43.6,45.9,43.2,40.8,94,88,76,30.02,29.88,16,3,16,0.12
2013-4-11,50.0,45.2,43.2,44.3,40.7,33.3,96,85,66,30.15,29.82,18,4,18,0.16
2013-4-12,43.3,39.9,37.6,38.1,35.3,30.4,95,84,68,30.18,29.78,26,9,29,0.31
2013-4-13,48.9,40.4,35.8,40.7,37.0,34.2,94,88,66,29.93,29.74,26,6,26,0.32
2013-4-14,53.2,47.1,41.8,41.4,33.7,26.3,90,62,37,30.20,29.91,21,5,22,0.00
2013-4-15,49.8,44.1,37.3,40.5,36.0,30.9,86,74,54,30.40,30.20,16,6,16,0.00
2013-4-16,57.7,49.6,41.6,49.1,42.6,37.8,91,78,58,30.41,30.06,37,14,39,0.00
2013-4-17,65.0,56.0,46.5,52.0,39.8,28.9,88,57,27,30.33,30.05,22,7,24,0.00
2013-4-18,53.9,49.0,44.4,44.2,38.4,32.7,81,67,45,30.45,30.15,29,9,30,0.00
2013-4-19,66.7,57.4,47.6,58.6,53.7,44.1,97,88,71,30.15,29.66,36,15,36,0.00
2013-4-20,60.7,53.6,46.4,58.8,41.3,25.0,96,67,37,30.20,29.60,30,11,32,0.25
2013-4-21,50.5,42.3,35.8,32.1,23.3,18.7,65,47,30,30.62,30.20,23,6,23,0.00
2013-4-26,53.9,49.3,44.8,42.7,40.0,35.4,91,72,53,30.43,30.38,18,6,20,0.00
2013-4-27,54.9,48.6,41.9,44.3,41.0,34.6,93,76,50,30.43,30.30,15,4,16,0.00
2013-4-28,58.2,51.7,46.4,46.2,42.4,36.7,83,71,53,30.35,30.23,17,5,22,0.00
2013-4-29,59.3,53.2,48.1,48.8,43.7,33.5,92,72,44,30.28,30.20,20,7,21,0.00
2013-4-30,60.0,53.0,47.5,44.8,40.4,29.8,85,64,34,30.38,30.26,11,3,14,0.00
2013-5-1,57.6,51.8,44.5,48.7,43.1,32.9,88,73,54,30.49,30.38,10,3,12,0.00
2013-5-2,67.3,54.8,48.1,51.2,46.6,42.1,91,76,43,30.47,30.38,24,4,26,0.00
2013-5-5,54.2,50.5,47.3,45.0,43.5,41.6,89,77,67,30.33,30.27,15,5,15,0.00
2013-5-6,53.2,48.1,43.4,49.9,45.4,41.8,95,90,81,30.31,30.17,14,3,14,0.00
2013-5-7,64.8,57.4,49.8,56.9,52.1,47.3,94,83,62,30.19,30.10,18,4,19,0.00
2013-5-8,62.4,56.4,52.8,57.0,53.9,51.1,97,92,81,30.23,30.06,17,5,17,0.03
2013-5-9,61.8,56.0,53.7,59.9,54.8,52.6,98,96,88,30.07,29.89,11,3,13,0.28
2013-5-10,66.7,59.1,55.1,59.6,55.8,53.6,98,89,77,29.96,29.88,14,4,15,0.28
2013-5-11,67.4,61.3,57.5,60.2,57.6,54.3,96,88,76,29.92,29.70,33,11,34,0.01
2013-5-12,70.0,59.8,52.8,59.2,51.7,30.0,97,78,38,29.80,29.55,23,6,26,0.06
2013-5-13,59.6,51.7,45.5,35.8,31.3,26.7,64,46,30,30.03,29.80,27,8,30,0.00
2013-5-14,58.9,51.1,42.8,38.5,31.3,26.8,68,48,31,30.05,29.96,20,5,20,0.00
2013-5-15,60.7,52.4,43.2,52.2,42.3,31.4,91,69,47,30.06,29.67,32,9,36,0.00
2013-5-16,80.5,67.5,51.0,51.8,41.2,29.6,94,47,18,29.80,29.61,30,9,35,0.00
2013-5-18,59.9,58.4,56.9,52.0,50.9,49.4,83,76,70,30.27,30.25,18,10,21,0.00
2013-5-19,61.7,54.7,47.8,53.7,50.2,45.6,96,85,70,30.36,30.24,19,6,21,0.07
2013-5-20,78.4,63.3,54.2,64.0,58.5,52.8,97,86,60,30.24,29.91,14,4,14,0.13
2013-5-21,65.2,57.1,51.0,59.9,54.9,49.8,97,93,81,30.04,29.89,24,6,25,0.26
2013-5-22,58.7,54.0,50.1,54.8,52.0,48.9,97,93,85,30.06,29.89,18,5,22,0.37
2013-5-23,71.5,60.5,52.8,65.4,58.1,51.9,98,92,79,29.94,29.81,27,8,29,0.01
2013-5-24,65.0,60.6,52.1,63.0,59.0,50.6,97,95,86,29.82,29.66,22,8,25,0.25
2013-5-25,54.0,49.0,42.3,51.4,47.1,39.0,96,93,87,29.80,29.68,21,8,23,0.05
2013-5-26,58.9,48.9,40.3,42.8,39.6,37.6,93,73,49,30.09,29.70,30,9,32,0.12
2013-5-27,72.8,59.1,45.8,45.4,38.7,29.4,82,52,22,30.17,30.06,22,6,22,0.00
2013-5-28,65.9,58.5,51.0,52.5,46.4,37.3,84,65,39,30.25,30.16,13,5,14,0.00
2013-5-29,67.2,59.3,55.3,62.0,56.9,52.2,97,92,82,30.20,29.98,14,3,16,0.45
2013-5-30,88.0,75.1,58.7,67.8,63.7,57.4,97,71,45,30.07,29.98,20,6,21,0.45
2013-5-31,86.8,76.2,66.0,67.9,64.3,60.5,88,68,48,30.08,29.91,17,5,18,0.00
2013-6-1,83.4,73.7,66.5,66.1,63.2,60.8,86,71,52,29.96,29.84,20,8,20,0.00
2013-6-2,79.5,69.9,63.6,66.3,63.1,60.6,92,80,61,29.87,29.72,33,15,35,0.00
2013-6-3,69.4,65.1,61.4,65.0,60.9,44.1,96,88,44,29.85,29.74,18,6,18,0.05
2013-6-4,72.3,63.4,53.8,48.7,44.6,42.0,68,51,37,30.09,29.81,20,6,24,0.05
2013-6-5,70.3,61.3,54.6,55.8,48.7,41.1,79,64,38,30.19,30.08,19,6,20,0.00
2013-6-6,67.0,60.6,56.3,58.3,53.6,51.4,89,78,64,30.19,30.11,19,5,19,0.00
2013-6-7,57.6,55.6,54.0,56.1,53.8,51.3,97,94,85,30.13,29.81,24,6,24,1.33
2013-6-8,76.5,63.5,53.5,63.7,57.6,52.6,97,83,62,29.99,29.58,30,10,30,1.47
2013-6-9,80.5,69.9,58.6,58.7,56.1,52.1,92,64,41,30.15,29.99,18,4,18,0.00
2013-6-10,67.4,62.7,57.4,57.9,56.5,54.9,96,81,67,30.22,30.03,14,4,15,0.36
2013-6-11,63.5,58.2,55.1,59.0,56.2,53.5,98,93,83,30.03,29.56,22,5,22,0.26
2013-6-12,71.2,61.7,55.9,58.6,55.6,53.7,97,82,58,29.81,29.55,21,5,26,0.29
2013-6-13,66.6,59.4,53.4,57.4,53.9,51.6,94,83,67,29.81,29.70,12,3,13,0.30
2013-6-14,53.3,53.0,52.8,51.6,51.3,51.1,94,94,94,29.68,29.67,10,8,15,0.39
2013-6-19,69.8,64.5,61.8,55.8,54.0,51.0,80,69,56,30.14,30.01,14,4,16,0.00
2013-6-20,73.3,65.1,55.3,61.7,56.0,49.6,87,73,54,30.26,30.14,18,4,20,0.00
2013-6-21,79.1,69.1,62.2,64.7,60.5,55.1,86,75,56,30.25,30.18,21,8,21,0.00
2013-6-22,79.1,70.4,64.6,63.7,61.2,58.5,88,74,56,30.22,30.10,20,9,21,0.00
2013-6-23,82.0,72.3,64.7,69.6,63.9,58.3,86,76,64,30.15,29.97,24,10,24,0.00
2013-6-24,93.3,77.0,65.7,70.9,67.5,62.6,94,75,45,30.01,29.85,24,8,34,0.14
2013-6-25,89.7,75.4,65.4,69.7,65.9,62.6,96,74,44,29.91,29.71,22,8,23,0.14
2013-6-26,84.5,72.1,63.7,72.2,67.3,62.1,97,86,60,29.86,29.71,14,3,16,0.54
2013-6-27,67.9,63.8,60.9,64.7,62.5,60.3,98,96,88,29.87,29.76,12,4,13,0.01
2013-6-28,74.3,67.8,61.3,69.3,65.8,60.7,98,94,81,29.77,29.49,22,9,23,0.36
2013-6-29,77.6,71.0,67.1,69.2,67.1,65.6,98,89,71,29.73,29.52,27,10,28,0.01
2013-6-30,77.0,71.3,67.9,70.8,67.7,65.5,95,89,79,29.94,29.72,20,8,22,0.03
2013-7-1,77.1,70.6,67.0,72.3,68.7,66.3,98,94,81,30.08,29.94,18,4,19,0.01
2013-7-2,76.2,67.8,60.7,71.6,65.5,59.2,98,93,81,30.21,30.07,18,6,19,0.02
2013-7-3,87.0,72.2,60.4,72.6,66.5,59.2,98,84,61,30.20,30.11,19,7,22,0.00
2013-7-4,91.2,78.5,70.4,74.2,71.0,67.7,95,79,55,30.19,30.07,20,9,20,0.00
2013-7-5,88.6,80.2,74.4,74.2,71.9,69.7,89,77,57,30.15,30.02,20,8,21,0.00
2013-7-6,91.8,83.1,73.0,74.2,69.7,63.2,92,66,45,30.06,29.96,20,6,21,0.00
2013-7-7,89.7,78.9,70.5,72.0,67.2,62.3,89,69,48,30.01,29.89,13,3,14,0.00
2013-7-8,84.7,73.8,65.9,75.0,69.1,63.1,96,86,71,30.07,29.90,19,5,19,0.00
2013-7-9,72.2,67.4,64.8,66.1,64.0,62.8,96,89,80,30.11,30.04,12,4,12,0.00
2013-7-10,80.5,71.6,66.1,72.5,68.6,63.9,97,91,75,30.08,29.79,25,8,27,0.00
2013-7-11,77.8,74.4,71.6,73.6,71.0,69.2,95,89,82,29.91,29.77,17,5,19,0.04
2013-7-12,76.5,70.1,65.9,69.3,62.4,58.5,94,77,61,30.20,29.91,26,8,28,0.00
2013-7-13,74.9,68.4,65.1,67.5,64.7,61.6,96,88,77,30.32,30.20,10,3,12,0.00
2013-7-14,89.3,75.8,67.7,73.7,70.7,66.5,98,86,53,30.30,30.19,12,2,14,0.00
2013-7-15,87.9,80.1,74.1,75.1,71.9,68.7,91,77,59,30.20,30.09,11,2,11,0.00
2013-7-16,91.0,80.2,74.3,74.8,69.5,65.5,84,70,54,30.16,30.09,13,4,14,0.00
2013-7-17,84.8,78.1,71.4,74.4,71.4,67.7,93,80,69,30.18,29.98,21,6,23,0.00
2013-7-18,89.1,79.8,74.2,74.9,72.3,70.0,90,79,57,30.01,29.94,18,5,19,0.00
2013-7-19,94.8,83.0,75.3,75.2,73.1,69.0,93,74,45,29.94,29.69,28,11,30,0.00
2013-7-20,91.9,81.1,72.3,75.3,71.1,65.6,93,73,52,29.79,29.62,22,7,25,0.00
2013-7-21,78.4,73.8,69.4,67.8,65.1,61.8,94,75,61,29.99,29.79,15,4,15,0.00
2013-7-22,76.9,70.8,66.5,69.6,67.3,65.5,97,89,75,30.02,29.89,15,4,16,0.00
2013-7-23,79.0,70.8,68.2,74.1,69.5,67.2,98,96,83,29.89,29.54,21,3,22,0.53
2013-7-24,85.5,76.1,68.0,73.4,67.0,54.9,99,76,53,29.94,29.58,20,4,20,0.54
2013-7-25,67.9,62.0,59.8,59.8,55.7,51.8,96,81,63,30.10,29.94,19,7,20,0.15
2013-7-26,70.5,64.9,60.6,66.6,63.0,59.4,97,94,84,30.05,29.91,19,6,20,0.23
2013-7-27,79.7,70.4,62.6,70.1,64.7,59.6,92,83,65,30.05,29.98,22,6,22,0.24
2013-7-28,77.8,69.5,66.1,69.5,66.6,64.0,97,91,75,30.02,29.97,16,4,16,0.01
2013-7-29,77.1,70.1,66.3,71.5,67.5,64.8,98,92,74,30.04,29.96,13,2,13,0.11
2013-7-30,81.2,71.1,64.4,66.9,63.8,56.6,97,79,45,30.08,30.02,15,4,17,0.11
2013-7-31,78.5,71.2,64.5,66.6,62.4,57.0,89,74,48,30.13,30.04,12,4,13,0.00
2013-8-1,76.6,71.6,67.6,68.5,65.2,62.4,89,81,68,30.04,29.88,22,8,24,0.00
2013-8-2,83.0,72.4,64.5,69.1,63.7,55.9,96,76,43,29.88,29.77,21,6,22,0.19
2013-8-3,78.3,72.2,68.0,65.6,63.1,60.1,86,74,55,29.86,29.76,20,9,23,0.01
2013-8-4,79.6,69.0,62.7,64.5,58.9,54.7,89,71,44,29.87,29.76,22,4,24,0.20
2013-8-5,76.7,66.9,58.7,55.9,47.7,39.0,81,54,28,30.04,29.87,20,6,21,0.20
2013-8-6,74.3,66.4,57.5,62.3,53.5,43.2,82,64,49,30.15,30.04,11,3,14,0.00
2013-8-7,74.9,68.2,62.4,64.2,60.4,57.1,86,77,63,30.19,30.11,17,5,21,0.00
2013-8-8,77.0,70.0,65.1,69.6,65.3,57.5,93,85,74,30.14,30.00,18,9,20,0.02
2013-8-9,74.6,70.1,66.7,73.4,68.6,65.8,98,95,92,30.03,29.73,24,10,28,0.77
2013-8-10,83.3,75.3,67.9,71.0,62.0,55.6,97,67,40,30.00,29.78,18,6,22,0.77
2013-8-11,78.2,68.0,58.9,61.8,55.9,50.4,85,67,41,30.08,29.99,14,3,16,0.00
2013-8-12,82.8,71.1,62.6,64.3,59.5,53.1,89,69,38,30.02,29.91,15,3,17,0.00
2013-8-13,71.2,67.2,64.5,67.2,63.8,61.7,93,89,81,29.92,29.68,12,2,13,0.00
2013-8-14,75.5,68.1,62.9,64.0,55.1,50.6,95,65,43,29.95,29.66,25,7,31,0.00
2013-8-15,77.2,67.5,57.5,55.0,51.2,46.0,82,58,36,30.11,29.95,18,5,19,0.00
2013-8-16,79.0,67.5,57.7,59.3,55.3,49.6,89,67,38,30.19,30.10,15,4,16,0.00
2013-8-17,74.5,67.7,62.2,62.3,58.8,54.8,91,74,56,30.28,30.19,12,4,13,0.00
2013-8-30,70.1,69.2,67.8,66.6,66.2,65.2,93,90,88,29.83,29.82,14,9,14,0.00
2013-8-31,75.9,70.2,67.0,71.8,67.8,65.0,96,92,85,29.84,29.78,17,7,18,0.05
2013-9-1,75.9,70.3,67.7,71.4,68.1,65.3,97,93,85,29.89,29.78,16,5,16,0.01
2013-9-2,76.6,70.3,66.6,72.3,68.6,65.8,98,95,84,29.88,29.71,15,4,15,0.03
2013-9-3,77.8,71.5,67.8,69.8,67.0,58.3,98,87,68,29.80,29.68,22,5,22,0.03
2013-9-4,80.0,70.6,61.5,59.8,57.0,52.5,86,64,41,29.91,29.79,21,7,22,0.00
2013-9-5,67.7,63.4,55.1,61.3,56.5,46.4,90,79,66,30.14,29.85,20,4,20,0.03
2013-9-6,67.3,59.2,49.4,52.8,45.2,39.8,76,61,42,30.24,30.09,13,6,14,0.00
2013-9-7,75.8,64.5,54.9,58.5,52.4,45.9,79,66,47,30.09,29.85,15,8,17,0.00
2013-9-8,75.0,65.5,55.0,61.3,52.3,40.9,88,65,35,30.09,29.74,26,8,27,0.02
2013-9-9,66.3,58.4,48.4,54.1,47.6,41.7,80,68,51,30.24,30.09,21,8,22,0.00
2013-9-10,69.9,64.3,59.4,66.8,60.2,52.4,95,87,76,30.16,30.03,24,9,25,0.03
2013-9-11,85.2,73.1,63.8,73.1,67.7,62.3,98,85,58,30.07,29.92,17,6,21,0.04
2013-9-12,80.6,71.6,65.8,70.4,67.0,64.1,97,86,61,29.96,29.66,24,8,28,0.43
2013-9-13,73.3,66.4,59.9,68.0,63.7,55.3,98,91,81,29.74,29.57,13,2,14,0.04
2013-9-14,67.3,61.6,56.2,56.3,53.7,51.6,85,76,61,30.06,29.74,16,4,17,0.04
2013-9-15,68.4,60.0,51.9,58.1,52.9,47.8,90,78,53,30.16,30.02,16,5,16,0.00
2013-9-16,68.5,59.9,49.6,54.4,50.3,39.3,82,71,59,30.24,30.00,19,6,24,0.00
2013-9-17,61.7,52.5,42.3,47.1,40.2,34.2,80,64,41,30.42,30.24,19,5,21,0.00
2013-9-18,68.6,54.9,48.8,53.3,46.0,43.3,84,73,51,30.33,30.21,8,3,10,0.00
2013-9-21,71.8,67.8,64.3,62.8,61.7,60.3,92,82,68,29.94,29.74,22,11,25,0.00
2013-9-22,70.8,64.5,54.4,64.3,56.5,46.1,93,77,47,29.82,29.60,27,8,27,0.13
2013-9-23,63.8,54.3,47.9,46.1,42.5,39.9,80,65,49,30.00,29.81,19,6,21,0.00
2013-9-24,66.5,54.0,45.1,47.1,42.6,39.7,82,67,42,29.99,29.76,18,5,20,0.00
2013-9-25,63.7,56.1,48.7,50.0,47.2,43.8,84,73,55,29.98,29.88,14,3,15,0.00
2013-9-26,64.3,57.9,53.7,52.8,49.7,46.7,86,74,60,30.12,29.98,17,4,17,0.00
2013-9-27,66.6,59.8,56.2,53.6,51.4,49.4,82,74,59,30.25,30.12,15,5,19,0.00
2013-9-28,70.0,60.0,54.3,58.0,54.1,50.3,95,82,61,30.32,30.24,16,5,16,0.00
2013-9-29,62.6,55.4,47.6,55.7,51.9,46.7,98,89,72,30.27,30.09,10,3,11,0.01
2013-9-30,63.4,55.1,47.5,55.7,51.7,46.1,97,89,74,30.13,29.93,12,2,12,0.01
2013-10-1,73.1,60.9,50.9,59.9,54.1,48.9,95,80,52,29.97,29.79,11,3,12,0.00
2013-10-2,80.5,68.4,59.1,61.2,58.2,54.5,88,71,50,29.94,29.76,19,6,25,0.00
2013-10-3,76.6,65.8,59.6,58.5,54.1,48.3,82,67,38,30.08,29.94,13,3,14,0.00
2013-10-4,64.7,60.6,56.1,58.8,54.8,49.6,94,82,70,30.09,30.03,13,1,16,0.04
2013-10-5,68.0,61.3,58.0,59.9,57.2,55.5,95,87,68,30.13,30.06,11,2,11,0.04
2013-10-6,60.1,18.2,58.0,99.9,86.5,55.3,95,28,87,30.23,30.12,13,-690,15,0.01
2013-10-7,72.0,46.0,62.3,99.9,75.8,57.7,98,60,82,30.14,29.81,38,-312,41,0.01
2013-10-8,66.5,59.2,50.6,57.7,45.9,40.9,85,63,41,30.37,29.89,19,5,21,0.01
2013-10-9,60.6,53.3,47.1,47.6,44.8,41.3,92,74,56,30.48,30.37,17,5,18,0.00
2013-10-10,61.1,53.4,46.1,53.4,49.4,43.8,94,87,73,30.37,30.18,13,5,14,0.00
2013-10-11,67.8,57.7,51.5,55.6,51.1,42.1,97,81,45,30.18,30.06,17,5,18,0.00
2013-10-12,59.8,56.1,52.3,56.6,52.6,48.8,94,88,80,30.40,30.15,20,7,23,0.00
2013-10-13,61.1,51.7,46.9,99.9,48.8,43.3,93,77,62,30.45,30.37,16,-28,16,0.00
2013-10-14,59.4,52.6,42.8,52.5,46.2,39.1,91,80,61,30.41,30.25,13,4,14,0.00
2013-10-15,62.2,57.5,51.5,55.7,52.4,47.8,90,83,72,30.27,30.19,12,4,13,0.00
2013-10-16,62.1,56.5,51.0,56.1,53.5,49.3,96,90,80,30.19,29.91,10,3,12,0.00
2013-10-17,61.5,46.0,55.3,99.9,64.6,54.1,96,76,92,29.92,29.72,16,-193,17,0.00
2013-10-18,67.3,62.3,56.0,60.9,51.8,40.8,96,71,45,29.90,29.61,23,9,28,0.04
2013-10-19,62.6,56.4,48.6,53.2,46.7,40.8,77,70,59,29.98,29.76,22,6,22,0.00
2013-10-20,62.0,54.1,49.2,99.9,43.6,33.3,92,58,36,30.02,29.69,24,-28,26,0.00
2013-10-21,65.3,54.4,45.8,52.6,43.5,35.4,80,67,44,30.12,30.00,22,6,23,0.00
2013-10-22,65.7,51.9,50.3,99.9,53.8,38.1,90,64,56,30.00,29.70,19,-97,21,0.00
2013-10-23,53.2,47.3,42.7,99.9,37.4,32.0,78,57,46,29.80,29.59,13,-34,15,0.00
2013-10-24,52.6,45.6,41.8,99.9,34.7,26.4,75,53,38,29.89,29.63,26,-35,27,0.00
2013-10-25,50.4,42.8,38.2,99.9,32.3,27.2,79,58,42,30.16,29.89,17,-19,22,0.00
2013-10-26,54.3,45.6,37.4,99.9,36.0,29.2,81,63,42,30.16,29.87,36,-8,37,0.00
2013-10-27,55.3,47.4,44.1,99.9,38.7,29.8,82,57,41,30.06,29.82,25,-36,30,0.03
2013-10-28,57.7,45.8,39.4,99.9,35.4,24.1,79,56,38,30.35,30.06,28,-29,29,0.00
2013-10-29,49.1,39.9,33.6,99.9,32.7,23.5,83,63,54,30.44,30.34,14,-29,17,0.00
2013-10-30,48.9,40.7,39.2,99.9,41.8,33.9,92,78,71,30.37,30.19,11,-55,12,0.01
2013-10-31,60.2,50.3,41.6,99.9,50.2,39.3,95,90,87,30.25,29.80,24,-17,25,0.02
2013-11-1,62.1,56.1,59.1,99.9,61.0,56.9,94,84,88,29.80,29.58,33,-55,33,0.00
2013-11-4,42.3,36.9,33.4,25.4,23.3,20.3,69,58,43,30.70,30.58,10,3,13,0.00
2013-11-5,48.0,39.6,30.4,99.9,34.1,21.6,74,63,49,30.71,30.52,19,-41,20,0.00
2013-11-6,57.4,48.7,45.5,99.9,48.1,37.0,90,73,64,30.52,30.04,24,-45,26,0.00
2013-11-7,64.3,51.0,43.0,99.9,52.7,35.1,94,81,70,30.04,29.66,27,-47,29,0.05
2013-11-8,48.6,38.2,36.6,99.9,35.0,23.3,80,56,47,30.09,29.81,29,-76,31,0.06
2013-11-9,45.4,39.4,35.0,99.9,29.5,21.3,67,52,39,30.20,30.05,21,-39,23,0.00
2013-11-10,54.9,44.5,44.1,99.9,43.5,33.3,85,63,52,30.05,29.73,22,-74,24,0.00
2013-11-11,51.6,43.8,40.3,99.9,36.1,26.4,69,53,38,30.09,29.83,23,-47,26,0.00
2013-11-12,49.7,32.6,28.4,99.9,32.8,17.2,85,57,54,30.19,29.88,21,-97,22,0.00
2013-11-13,36.7,29.2,25.6,99.9,22.2,12.3,68,50,39,30.28,30.15,23,-65,25,0.00
2013-11-14,50.1,40.0,32.9,99.9,30.3,20.8,67,50,36,30.16,30.01,24,-45,27,0.02
2013-11-15,55.5,45.5,39.8,99.9,36.4,21.4,72,52,37,30.20,30.10,20,-49,20,0.02
2013-11-16,53.9,44.2,42.8,99.9,40.7,28.9,80,60,42,30.32,30.18,12,-69,13,0.00
2013-11-17,53.7,44.6,38.4,99.9,49.4,34.6,97,82,73,30.32,29.86,16,-75,18,0.03
2013-11-18,64.3,49.9,50.0,99.9,53.2,33.4,98,65,47,29.85,29.49,30,-105,33,0.01
2013-11-19,49.9,37.9,31.9,99.9,27.6,17.1,58,47,39,30.27,29.65,25,-52,29,0.01
2013-11-20,42.7,32.6,29.4,99.9,21.1,11.4,60,41,29,30.62,30.27,22,-67,24,0.00
2013-11-21,47.4,38.2,29.7,99.9,28.9,14.1,68,49,42,30.64,30.38,17,-54,17,0.00
2013-11-22,46.1,39.6,42.2,99.9,47.3,32.7,97,80,68,30.38,29.81,13,-101,14,0.09
2013-11-23,47.9,37.7,31.4,99.9,33.2,15.4,97,55,33,29.89,29.77,29,-73,29,0.09
2013-11-24,31.5,23.4,21.3,99.9,12.9,-3.2,68,39,28,30.17,29.77,39,-71,43,0.00
2013-11-25,34.1,25.3,18.8,99.9,12.7,-8.1,65,35,18,30.36,30.17,25,-72,26,0.00
2013-11-26,46.4,34.3,32.4,99.9,36.6,20.8,94,58,50,30.34,30.05,26,-111,27,0.04
2013-11-27,58.4,42.2,39.6,99.9,56.1,33.6,97,80,79,30.05,29.20,37,-145,41,0.23
2013-11-28,39.6,29.1,26.8,99.9,26.2,6.4,83,48,32,30.43,29.42,31,-98,32,0.02
2013-11-29,32.9,25.4,21.7,99.9,18.0,4.2,67,46,35,30.75,30.43,19,-74,21,0.02
2013-11-30,37.6,26.9,19.5,99.9,25.3,8.7,75,59,58,30.79,30.44,18,-75,19,0.03
2013-12-1,46.1,36.4,37.3,99.9,45.0,30.4,96,77,75,30.44,30.00,23,-112,26,0.07
2013-12-2,40.9,32.8,36.8,99.9,46.2,35.7,96,81,92,30.00,29.92,15,-143,16,0.02
2013-12-5,51.4,47.6,45.9,50.5,45.9,42.5,97,94,86,30.16,29.91,12,2,13,0.00
2013-12-6,52.1,38.6,34.0,99.9,52.0,31.9,97,71,62,30.14,29.85,19,-166,20,0.02
2013-12-7,39.9,30.0,29.3,99.9,36.7,19.8,93,66,61,30.45,30.06,18,-125,20,0.03
2013-12-8,30.9,26.7,26.1,99.9,24.6,15.7,72,57,55,30.60,30.45,10,-80,11,0.03
2013-12-9,43.0,31.1,26.5,99.9,43.2,16.5,96,78,58,30.50,29.87,18,-139,22,0.12
2013-12-10,37.6,27.8,27.3,99.9,39.4,14.2,96,71,54,30.00,29.77,27,-146,27,0.01
2013-12-11,32.6,21.7,26.0,99.9,41.1,16.0,78,52,55,30.21,30.00,29,-247,30,0.01
2013-12-12,26.5,21.2,19.8,99.9,17.3,-0.8,81,49,32,30.27,30.06,23,-90,25,0.00
2013-12-13,29.7,21.8,15.2,99.9,19.9,2.8,79,58,50,30.40,29.99,28,-68,30,0.00
2013-12-14,30.7,17.3,10.5,99.9,20.5,-3.7,95,64,51,30.61,30.16,34,-97,34,0.00
2013-12-15,36.9,24.0,22.0,99.9,38.7,20.5,97,76,79,30.17,29.36,35,-156,38,0.09
2013-12-16,29.6,23.7,20.1,99.9,21.8,6.5,83,55,40,30.21,29.74,28,-84,29,0.00
2013-12-17,27.0,15.5,8.3,99.9,19.4,-0.1,94,66,56,30.29,30.00,21,-97,23,0.00
2013-12-21,52.4,42.1,43.1,99.9,50.4,37.7,91,75,78,29.96,29.85,19,-112,21,0.02
2013-12-22,52.0,34.2,35.3,99.9,49.1,34.2,97,79,88,30.04,29.79,23,-156,24,0.01
2013-12-23,38.5,29.0,32.4,99.9,45.7,31.6,97,80,95,30.11,29.96,15,-171,16,0.01
2013-12-24,38.4,28.5,27.2,99.9,34.2,15.1,95,59,51,30.20,30.04,21,-135,22,0.01
2013-12-25,27.7,19.0,14.1,99.9,15.4,0.3,71,49,43,30.55,30.19,24,-88,25,0.01
2013-12-26,38.6,27.6,24.5,99.9,35.6,15.6,93,74,68,30.51,30.07,18,-112,20,0.03
2013-12-27,34.4,28.1,27.0,99.9,30.7,20.8,86,63,58,30.27,30.18,22,-96,25,0.03
2013-12-28,46.7,35.2,31.4,99.9,34.9,24.7,81,64,51,30.22,29.98,27,-72,27,0.03
2013-12-29,42.2,35.3,36.0,99.9,41.8,29.1,96,76,68,30.03,29.37,33,-98,33,0.02
2013-12-30,43.4,29.3,18.9,99.9,34.6,7.0,94,58,44,30.17,29.49,26,-133,30,0.01
2013-12-31,26.7,18.6,13.9,99.9,16.3,-1.9,74,48,43,30.18,30.03,22,-98,23,0.02
2014-1-1,28.1,21.5,20.6,99.9,18.0,7.6,64,49,44,30.39,30.18,23,-86,23,0.00
2014-1-2,24.0,15.1,2.7,99.9,26.5,-0.1,94,76,59,30.37,29.83,35,-130,35,0.00